Starlink 32514

operational
NORAD ID: 61965 Int'l Des: 2024-210 Owner: SPXS Country: US Constellation: starlink
LEOCIRCULAR

About Starlink 32514

Description loading...

Live Position

Loading 3D Globe...

Upcoming Passes

Altitude History

Altitude vs Time

uPlot chart will show altitude changes over time

Two-Line Element Set

1 61965U 24210G 25351.84097541 .00031966 00000-0 11659-2 0 9999
2 61965 42.9990 275.0285 0000644 225.1788 134.9012 15.27586169 62477
Epoch: Dec 17, 2025 • Age: 14 hours

Current Status

Altitude 482.3 km
Velocity 7.63 km/s
Sub-Earth Point 12.62°N, 42.39°E
Launch Date Nov 14, 2024
Age 1 years
Type internet

Technical Details

Classification Payload
Mass 730.00 kg
Dry Mass 700.00 kg
Total Mass 730.00 kg
Length 0.30 m
Diameter 4.10 m
Span 29.00 m
Shape Box + pan
Manufacturer SPXS
Bus Type Starlink V2M
Phase Status In Orbit
Owner/State SPXS/US

Large Constellations

Loading constellations...